N8GD Weather Reports


time (UTC)temp
C
wind
direction
speed
KPH
gust
KPH
rain 1hr
cm
rain 24hr
cm
rain mn
cm
humidity
%
barometer
mb
20260505183742 22 247 9.7 35.4 0.00 0.05 0.05 54 1007.9
20260505182243 21 204 8.0 37.0 0.00 0.05 0.05 55 1007.9
20260505182144 21 207 8.0 32.2 0.00 0.05 0.05 54 1007.9
20260505180743 21 249 17.7 30.6 0.00 0.05 0.05 54 1007.8
20260505175244 21 238 9.7 37.0 0.00 0.05 0.05 58 1007.8
20260505175145 21 238 9.7 37.0 0.00 0.05 0.05 58 1007.8
20260505173742 21 206 17.7 29.0 0.00 0.05 0.05 55 1008.0
20260505172242 21 215 6.4 22.5 0.00 0.05 0.05 59 1008.1
20260505172146 21 232 4.8 22.5 0.00 0.05 0.05 57 1008.1
20260505170743 20 260 9.7 24.1 0.00 0.05 0.05 60 1008.1
20260505165242 20 270 8.0 29.0 0.00 0.05 0.05 61 1007.9
20260505165141 20 270 8.0 29.0 0.00 0.05 0.05 61 1007.9
20260505163743 19 227 8.0 37.0 0.00 0.05 0.05 58 1008.1
20260505162243 20 232 9.7 30.6 0.00 0.05 0.05 58 1007.6
20260505160744 21 190 8.0 27.4 0.00 0.05 0.05 56 1007.7
20260505152242 20 233 14.5 29.0 0.00 0.05 0.05 59 1008.1
20260505150743 20 229 6.4 32.2 0.00 0.05 0.05 60 1007.6
20260505123742 18 222 14.5 27.4 0.00 0.05 0.05 65 1007.7
20260505122243 17 229 3.2 20.9 0.00 0.05 0.05 67 1007.8
20260505120743 17 235 6.4 16.1 0.00 0.05 0.05 68 1007.8
20260505120644 17 209 1.6 16.1 0.00 0.05 0.05 68 1007.8
20260505115243 16 212 11.3 11.3 0.00 0.05 0.05 69 1007.9
20260505113742 16 241 3.2 14.5 0.00 0.05 0.05 70 1007.8
20260505113644 16 241 3.2 14.5 0.00 0.05 0.05 70 1007.8
20260505112242 16 231 3.2 17.7 0.00 0.05 0.05 70 1007.8
20260505110743 16 212 4.8 16.1 0.00 0.05 0.05 70 1007.8
20260505110648 16 233 4.8 16.1 0.00 0.05 0.05 70 1007.8
20260505100743 16 265 1.6 11.3 0.00 0.05 0.05 74 1007.0
20260505100647 16 235 1.6 11.3 0.00 0.05 0.05 74 1007.0
20260505095242 16 209 0.0 17.7 0.00 0.05 0.05 74 1006.7
20260505093742 16 181 8.0 16.1 0.00 0.05 0.05 74 1006.7
20260505092243 15 229 1.6 12.9 0.00 0.05 0.05 75 1006.5
20260505090742 16 160 8.0 14.5 0.00 0.05 0.05 74 1006.4
20260505085243 16 222 1.6 16.1 0.00 0.05 0.05 75 1006.3
20260505085144 16 224 8.0 12.9 0.00 0.05 0.05 75 1006.3
20260505083743 15 179 4.8 11.3 0.00 0.05 0.05 77 1006.5
20260505083647 15 235 4.8 11.3 0.00 0.05 0.05 77 1006.5
20260505082243 15 238 3.2 16.1 0.00 0.05 0.05 77 1006.4
20260505082142 15 238 3.2 16.1 0.00 0.05 0.05 77 1006.4
20260505080743 15 226 1.6 12.9 0.00 0.05 0.05 78 1006.5
20260505075243 15 213 0.0 9.7 0.00 0.05 0.05 80 1006.3
20260505075144 15 191 3.2 11.3 0.00 0.05 0.05 80 1006.3
20260505073743 15 180 0.0 12.9 0.00 0.05 0.05 80 1006.2
20260505072243 15 208 1.6 8.0 0.00 0.05 0.05 78 1006.3
20260505072143 15 225 1.6 11.3 0.03 0.05 0.05 78 1006.3
20260505070743 16 210 0.0 17.7 0.03 0.05 0.05 76 1006.2
20260505065243 16 206 6.4 24.1 0.05 0.05 0.05 75 1006.3
20260505065142 16 221 6.4 27.4 0.05 0.05 0.05 75 1006.3
20260505063743 16 217 3.2 19.3 0.05 0.05 0.05 76 1006.5
20260505062243 16 265 6.4 19.3 0.03 0.03 0.03 76 1006.8
20260505062142 16 265 6.4 19.3 0.03 0.03 0.03 76 1006.8
20260505060743 16 162 12.9 11.3 0.03 0.03 0.03 75 1007.0
20260505060705 16 162 12.9 11.3 0.03 0.03 0.03 75 1007.0
20260505055243 17 275 6.4 11.3 0.00 0.00 0.00 69 1006.9
20260505055144 17 275 6.4 11.3 0.00 0.00 0.00 69 1006.9
20260505053743 16 209 9.7 11.3 0.00 0.00 0.00 70 1006.9
20260505052243 16 248 1.6 11.3 0.00 0.00 0.00 71 1007.0
20260505052147 16 246 0.0 11.3 0.00 0.00 0.00 71 1007.0
20260505050743 16 204 0.0 9.7 0.00 0.00 0.00 70 1007.0
20260505040743 16 210 0.0 8.0 0.00 0.00 0.00 71 1007.1
20260505040647 16 221 0.0 8.0 0.00 0.00 0.00 71 1007.1
20260505035243 16 202 3.2 8.0 0.00 0.00 0.00 71 1007.1
20260505033743 15 228 1.6 6.4 0.00 0.00 0.00 72 1007.1
20260505032242 15 196 0.0 4.8 0.00 0.00 0.00 71 1007.1
20260505032145 15 196 0.0 4.8 0.00 0.00 0.00 71 1007.1
20260505030743 16 227 0.0 3.2 0.00 0.00 0.00 70 1007.3
20260505025243 16 200 0.0 3.2 0.00 0.00 0.00 70 1007.5
20260505025143 16 208 0.0 1.6 0.00 0.00 0.00 69 1007.5
20260505023744 16 202 1.6 3.2 0.00 0.00 0.00 68 1007.6
20260505022243 16 221 0.0 4.8 0.00 0.00 0.00 67 1007.6
20260505021006 17 216 0.0 4.8 0.00 0.00 0.00 66 1007.6
20260505020744 17 195 0.0 4.8 0.00 0.00 0.00 66 1007.6
20260505015243 17 218 1.6 6.4 0.00 0.00 0.00 66 1007.5
20260505015142 17 218 0.0 8.0 0.00 0.00 0.00 66 1007.5
20260505013742 17 209 0.0 4.8 0.00 0.00 0.00 65 1007.4
20260505012243 17 223 0.0 11.3 0.00 0.00 0.00 64 1007.2
20260505010744 17 219 1.6 8.0 0.00 0.00 0.00 63 1007.3
20260505005243 18 212 1.6 11.3 0.00 0.00 0.00 62 1007.2
20260505005144 18 224 0.0 11.3 0.00 0.00 0.00 62 1007.2
20260505003742 18 286 3.2 16.1 0.00 0.00 0.00 62 1007.1
20260505003705 18 254 3.2 16.1 0.00 0.00 0.00 61 1007.1
20260505002243 18 214 8.0 16.1 0.00 0.00 0.00 61 1006.8
20260505000742 19 210 9.7 17.7 0.00 0.00 0.00 59 1006.8
20260504235243 19 252 0.0 19.3 0.00 0.00 0.00 59 1006.7
20260504233744 20 209 3.2 14.5 0.00 0.00 0.00 57 1006.7
20260504232243 20 215 0.0 24.1 0.00 0.00 0.00 56 1006.7
20260504230744 20 216 3.2 22.5 0.00 0.00 0.00 56 1006.7
20260504225243 20 224 8.0 25.7 0.00 0.00 0.00 55 1007.1
20260504223743 20 239 3.2 27.4 0.00 0.00 0.00 56 1007.0
20260504222243 21 235 3.2 11.3 0.00 0.00 0.00 56 1007.2
20260504222142 21 234 6.4 22.5 0.00 0.00 0.00 56 1007.2
20260504220744 20 204 16.1 25.7 0.00 0.00 0.00 56 1007.2
20260504220659 20 242 8.0 25.7 0.00 0.00 0.00 56 1007.2
20260504215242 20 209 4.8 25.7 0.00 0.00 0.00 55 1007.1
20260504215152 20 209 4.8 25.7 0.00 0.00 0.00 55 1007.1
20260504213743 21 265 6.4 30.6 0.00 0.00 0.00 54 1007.0
20260504212242 20 212 11.3 24.1 0.00 0.00 0.00 55 1007.0
20260504210743 21 234 17.7 25.7 0.00 0.00 0.00 53 1006.8
20260504205242 21 201 19.3 27.4 0.00 0.00 0.00 53 1006.9
20260504203744 20 232 3.2 25.7 0.00 0.00 0.00 56 1006.8
20260504202243 21 187 11.3 25.7 0.00 0.00 0.00 54 1007.3
20260504200744 21 225 12.9 29.0 0.00 0.00 0.00 53 1007.4
20260504195243 21 225 12.9 27.4 0.00 0.00 0.00 52 1007.7
20260504193743 21 265 9.7 24.1 0.00 0.00 0.00 56 1007.8
20260504192243 21 231 14.5 29.0 0.00 0.00 0.00 56 1007.9
20260504190743 21 243 8.0 29.0 0.00 0.00 0.00 54 1008.0
20260504185242 21 193 8.0 32.2 0.00 0.00 0.00 54 1008.1